Tracking 19192 objects as of 21-Jun-2018
HD Live streaming from Space Station
objects crossing your sky now

THORAD AGENA D DEB

Track THORAD AGENA D DEB now!
10-day predictions


NORAD ID: 4171
Int'l Code: 1969-082AP
Perigee: 766.6 km
Apogee: 822.9 km
Inclination: 70.1 °
Period: 100.6 minutes
Semi major axis: 7165 km
RCS: 0.0461 m2 (small)
Launch date: September 30, 1969
Source: United States (US)
Launch site: AIR FORCE WESTERN TEST RANGE (AFWTR)

Note: This is SATELLITE DEBRIS
aabbcc
Your satellite tracking list
Your tracking list is empty




NASA's NSSDC Master Catalog

Two Line Element Set (TLE):
1 04171U 69082AP  18171.77908642  .00000209  00000-0  99927-4 0  9990
2 04171  70.0789 302.4179 0039306 239.0209 120.7052 14.31223273521540
Source of the keplerian elements: AFSPC